FW4300 Weather Reports


Display with metric or nautical units.
time (UTC)temp
F
wind
direction
speed
MPH
gust
MPH
rain 1hr
in
rain 24hr
in
rain mn
in
humidity
%
barometer
mb
20260905173045 87 172 3.0 8.0 0.00 0.01 0.01 63 1014.7
20260905172544 86 109 3.0 8.0 0.00 0.01 0.01 63 1014.8
20260905172044 87 156 4.0 8.0 0.00 0.01 0.01 64 1015.0
20260905171557 86 116 3.0 8.0 0.00 0.01 0.01 64 1015.0
20260905171043 85 204 3.0 9.0 0.00 0.01 0.01 65 1015.1
20260905170543 85 131 2.0 9.0 0.00 0.01 0.01 65 1015.2
20260905170047 86 167 5.0 11.0 0.00 0.01 0.01 64 1015.2
20260905165543 86 137 4.0 11.0 0.00 0.01 0.01 64 1015.3
20260905165043 87 146 5.0 11.0 0.00 0.01 0.01 64 1015.2
20260905164547 87 122 4.0 10.0 0.00 0.01 0.01 64 1015.2
20260905164043 87 127 3.0 9.0 0.00 0.01 0.01 64 1015.2
20260905163542 87 164 4.0 9.0 0.00 0.01 0.01 64 1015.2
20260905163042 87 113 2.0 8.0 0.00 0.01 0.01 63 1015.2
20260905162542 87 158 2.0 8.0 0.00 0.01 0.01 63 1015.3
20260905162040 88 143 2.0 9.0 0.00 0.01 0.01 63 1015.4
20260905161543 87 148 4.0 9.0 0.00 0.01 0.01 63 1015.4
20260905161039 87 122 2.0 8.0 0.00 0.01 0.01 65 1015.4
20260905160538 86 161 2.0 8.0 0.00 0.01 0.01 65 1015.6
20260905160046 86 148 3.0 11.0 0.00 0.01 0.01 65 1015.6
20260905155538 86 166 5.0 11.0 0.00 0.01 0.01 65 1015.7
20260905155037 86 188 5.0 9.0 0.00 0.01 0.01 64 1015.8
20260905154551 85 188 4.0 7.0 0.00 0.01 0.01 65 1015.9
20260905154037 85 217 2.0 8.0 0.00 0.01 0.01 65 1016.0
20260905153539 86 210 5.0 8.0 0.00 0.01 0.01 64 1016.0
20260905153036 86 120 3.0 8.0 0.00 0.01 0.01 64 1015.9
20260905152537 86 202 2.0 7.0 0.00 0.01 0.01 65 1016.1
20260905152037 85 218 4.0 7.0 0.00 0.01 0.01 64 1016.1
20260905151538 85 179 3.0 7.0 0.00 0.01 0.01 65 1016.1
20260905151035 85 214 4.0 7.0 0.00 0.01 0.01 65 1016.2
20260905150535 84 192 2.0 9.0 0.00 0.01 0.01 66 1016.3
20260905150036 84 206 4.0 10.0 0.00 0.01 0.01 66 1016.2
20260905145536 84 136 5.0 10.0 0.00 0.01 0.01 65 1016.2
20260905145037 85 155 6.0 10.0 0.00 0.01 0.01 65 1016.2
20260905144548 85 137 5.0 10.0 0.00 0.01 0.01 64 1016.3
20260905144034 85 160 3.0 10.0 0.00 0.01 0.01 64 1016.2
20260905143535 85 153 2.0 8.0 0.00 0.01 0.01 65 1016.3
20260905143035 85 118 4.0 9.0 0.00 0.01 0.01 64 1016.3
20260905142538 85 118 3.0 9.0 0.01 0.01 0.01 65 1016.4
20260905142034 85 139 3.0 7.0 0.01 0.01 0.01 65 1016.4
20260905141534 84 163 1.0 6.0 0.01 0.01 0.01 66 1016.6
20260905141034 84 113 3.0 7.0 0.01 0.01 0.01 67 1016.6
20260905140534 84 98 3.0 7.0 0.01 0.01 0.01 67 1016.5
20260905140038 84 125 4.0 7.0 0.01 0.01 0.01 67 1016.5
20260905135534 83 122 1.0 9.0 0.01 0.01 0.01 67 1016.5
20260905135033 83 119 3.0 9.0 0.01 0.01 0.01 67 1016.6
20260905134533 83 108 2.0 9.0 0.01 0.01 0.01 67 1016.6
20260905134032 83 92 2.0 9.0 0.01 0.01 0.01 67 1016.5
20260905133532 83 94 3.0 8.0 0.01 0.01 0.01 66 1016.5
20260905133032 84 82 4.0 8.0 0.01 0.01 0.01 66 1016.4
20260905132532 84 141 1.0 6.0 0.00 0.00 0.00 65 1016.3
20260905132032 85 134 2.0 8.0 0.00 0.00 0.00 65 1016.3
20260905131531 86 155 3.0 8.0 0.00 0.00 0.00 64 1016.2
20260905131031 86 160 3.0 6.0 0.00 0.00 0.00 64 1016.2
20260905130531 86 129 2.0 5.0 0.00 0.00 0.00 64 1016.2
20260905130029 84 66 0.0 4.0 0.00 0.00 0.00 66 1016.2
20260905125528 83 222 0.0 0.0 0.00 0.00 0.00 67 1016.3
20260905125027 82 77 0.0 0.0 0.00 0.00 0.00 69 1016.4
20260905124532 81 293 0.0 0.0 0.00 0.00 0.00 70 1016.4
20260905124028 80 293 0.0 0.0 0.00 0.00 0.00 70 1016.4
20260905123522 80 312 0.0 0.0 0.00 0.00 0.00 70 1016.4
20260905123022 80 310 0.0 0.0 0.00 0.00 0.00 71 1016.4
20260905122527 80 314 0.0 0.0 0.00 0.00 0.00 71 1016.4
20260905122021 79 299 0.0 0.0 0.00 0.00 0.00 71 1016.3
20260905121521 79 290 0.0 0.0 0.00 0.00 0.00 71 1016.2
20260905121021 79 290 0.0 0.0 0.00 0.00 0.00 71 1016.2
20260905120521 79 290 0.0 0.0 0.00 0.00 0.00 71 1016.1
20260905120020 79 319 0.0 0.0 0.00 0.00 0.00 71 1016.0
20260905115521 79 317 0.0 0.0 0.00 0.01 0.00 71 1016.1
20260905115022 79 317 0.0 0.0 0.00 0.01 0.00 71 1016.0
20260905114520 78 317 0.0 0.0 0.00 0.01 0.00 71 1015.9
20260905114018 78 317 0.0 0.0 0.00 0.01 0.00 71 1015.9
20260905113522 78 324 0.0 0.0 0.00 0.01 0.00 71 1015.8
20260905113019 78 331 0.0 0.0 0.00 0.01 0.00 71 1015.8
20260905112518 78 328 0.0 0.0 0.00 0.01 0.00 72 1015.7
20260905112018 78 328 0.0 0.0 0.00 0.01 0.00 73 1015.8
20260905111517 78 328 0.0 0.0 0.00 0.01 0.00 73 1015.7
20260905111017 78 328 0.0 0.0 0.00 0.01 0.00 74 1015.7
20260905110520 77 332 0.0 0.0 0.00 0.01 0.00 74 1015.6
20260905110017 77 338 0.0 1.0 0.00 0.01 0.00 75 1015.5
20260905105516 77 340 0.0 1.0 0.00 0.01 0.00 75 1015.4
20260905105020 77 339 0.0 1.0 0.00 0.01 0.00 75 1015.3
20260905104524 76 326 0.0 1.0 0.00 0.01 0.00 76 1015.4
20260905104014 0 0.0 0.0 0.00 0.01 0.00 1015.4
20260905103513 0 0.0 0.0 0.00 0.01 0.00 1015.3
20260905103014 0 0.0 0.0 0.00 0.01 0.00 1015.3
20260905102510 0 0.0 0.0 0.00 0.01 0.00 1015.3
20260905102009 0 0.0 0.0 0.00 0.01 0.00 1015.2
20260905101508 0 0.0 0.0 0.00 0.01 0.00 1015.2
20260905101006 0 0.0 0.0 0.00 0.01 0.00 1015.3
20260905100505 0 0.0 0.0 0.00 0.01 0.00 1015.3
20260905100006 0 0.0 0.0 0.00 0.01 0.00 1015.3
20260905095502 0 0.0 0.0 0.00 0.01 0.00 1015.2
20260905095001 0 0.0 0.0 0.00 0.01 0.00 1015.2
20260905094609 0 0.0 0.0 0.00 0.01 0.00 1015.1
20260905094059 0 0.0 0.0 0.00 0.01 0.00 1014.9
20260905093558 0 0.0 0.0 0.00 0.01 0.00 1014.8
20260905093057 0 0.0 0.0 0.00 0.01 0.00 1014.8
20260905092556 0 0.0 0.0 0.00 0.01 0.00 1014.9
20260905092053 0 0.0 0.0 0.00 0.01 0.00 1014.9
20260905091605 0 0.0 0.0 0.00 0.01 0.00 1014.9
20260905091051 0 0.0 0.0 0.00 0.01 0.00 1014.8
20260905090549 0 0.0 0.0 0.00 0.01 0.00 1014.7
20260905090048 0 0.0 0.0 0.00 0.01 0.00 1014.7
20260905085547 0 0.0 0.0 0.00 0.01 0.00 1014.7
20260905085047 0 0.0 0.0 0.00 0.01 0.00 1014.7
20260905084546 0 0.0 0.0 0.00 0.01 0.00 1014.8
20260905084042 0 18 0.0 2.0 0.00 0.01 0.00 1014.8
20260905083548 0 18 0.0 2.0 0.00 0.01 0.00 1014.9
20260905083040 76 58 0.0 2.0 0.00 0.01 0.00 75 1014.9
20260905082540 76 44 0.0 1.0 0.00 0.01 0.00 75 1014.8
20260905082042 76 49 0.0 1.0 0.00 0.01 0.00 75 1014.8
20260905081543 76 290 0.0 0.0 0.00 0.01 0.00 75 1014.7
20260905081039 77 286 0.0 0.0 0.00 0.01 0.00 75 1014.8
20260905080539 77 318 0.0 0.0 0.00 0.01 0.00 75 1014.7
20260905080051 77 341 0.0 0.0 0.00 0.01 0.00 75 1014.6
20260905075538 77 23 0.0 0.0 0.00 0.01 0.00 75 1014.6
20260905075041 77 25 0.0 0.0 0.00 0.01 0.00 75 1014.6
20260905074538 77 27 0.0 0.0 0.00 0.01 0.00 75 1014.6
20260905074038 76 288 0.0 0.0 0.00 0.01 0.00 75 1014.6
20260905073537 76 287 0.0 0.0 0.00 0.01 0.00 75 1014.6
20260905073043 76 287 0.0 1.0 0.00 0.01 0.00 74 1014.7
20260905072535 76 310 0.0 1.0 0.00 0.01 0.00 74 1014.7
20260905072037 77 311 0.0 1.0 0.00 0.01 0.00 75 1014.7
20260905071534 77 342 0.0 2.0 0.00 0.01 0.00 75 1014.8
20260905071038 77 357 0.0 2.0 0.00 0.01 0.00 75 1014.8
20260905070533 76 333 0.0 2.0 0.00 0.01 0.00 75 1014.9
20260905070043 76 321 0.0 2.0 0.00 0.01 0.00 72 1015.0
20260905065530 76 315 0.0 0.0 0.00 0.01 0.00 72 1015.0
20260905065033 76 313 0.0 0.0 0.00 0.01 0.00 72 1015.1
20260905064530 76 312 0.0 0.0 0.00 0.01 0.00 72 1015.0
20260905064029 76 310 0.0 0.0 0.00 0.01 0.00 72 1015.1
20260905063528 76 331 0.0 0.0 0.00 0.01 0.00 71 1015.2
20260905063027 76 331 0.0 0.0 0.00 0.01 0.00 71 1015.2
20260905062528 76 336 0.0 0.0 0.00 0.01 0.00 70 1015.3
20260905062025 76 340 0.0 0.0 0.00 0.01 0.00 70 1015.4
20260905061539 77 304 0.0 0.0 0.00 0.01 0.00 69 1015.4
20260905061024 77 239 0.0 0.0 0.00 0.01 0.00 69 1015.4
20260905060524 77 230 0.0 0.0 0.00 0.01 0.00 69 1015.4
20260905060022 78 230 0.0 0.0 0.00 0.01 0.00 69 1015.5
20260905055520 78 230 0.0 1.0 0.00 0.01 0.00 69 1015.6
20260905055022 78 230 0.0 1.0 0.00 0.01 0.00 68 1015.7
20260905054520 78 212 0.0 1.0 0.00 0.01 0.00 68 1015.7
20260905054017 78 212 0.0 1.0 0.00 0.01 0.00 68 1015.7
20260905053517 78 189 0.0 0.0 0.00 0.01 0.00 68 1015.7
20260905053020 79 188 0.0 0.0 0.00 0.01 0.00 67 1015.8
20260905052514 79 145 0.0 1.0 0.00 0.01 0.00 68 1016.0
20260905052016 79 141 0.0 1.0 0.00 0.01 0.00 68 1016.0
20260905051514 79 137 0.0 1.0 0.00 0.01 0.00 68 1016.1
20260905051013 79 137 0.0 1.0 0.00 0.01 0.00 68 1016.1
20260905050514 79 121 0.0 1.0 0.00 0.01 0.00 68 1016.1
20260905050013 79 170 0.0 1.0 0.00 0.01 0.00 68 1016.1
20260905045512 79 146 0.0 1.0 0.00 0.01 0.00 68 1016.2
20260905045011 79 121 0.0 1.0 0.00 0.01 0.00 67 1016.4
20260905044516 79 151 0.0 1.0 0.00 0.01 0.00 67 1016.3
20260905044009 79 145 0.0 1.0 0.00 0.01 0.00 67 1016.3
20260905043509 79 145 0.0 1.0 0.00 0.01 0.00 67 1016.3
20260905043009 79 141 0.0 1.0 0.00 0.01 0.00 67 1016.3
20260905042511 79 139 0.0 1.0 0.00 0.01 0.00 67 1016.3
20260905042009 79 127 0.0 1.0 0.00 0.01 0.00 67 1016.3
20260905041511 79 137 0.0 1.0 0.00 0.01 0.00 67 1016.3
20260905041006 79 122 0.0 1.0 0.00 0.01 0.00 67 1016.4
20260905040507 79 163 0.0 1.0 0.00 0.01 0.00 67 1016.5
20260905040012 80 149 0.0 1.0 0.00 0.01 0.00 67 1016.4
20260905035506 79 155 0.0 1.0 0.00 0.01 0.01 67 1016.4
20260905035005 80 124 0.0 1.0 0.00 0.01 0.01 67 1016.5
20260905034509 80 160 0.0 1.0 0.00 0.01 0.01 67 1016.6
20260905034004 80 150 0.0 1.0 0.00 0.01 0.01 67 1016.6
20260905033504 80 136 0.0 1.0 0.00 0.01 0.01 66 1016.6
20260905033004 80 157 0.0 1.0 0.00 0.01 0.01 66 1016.6
20260905032508 80 162 0.0 1.0 0.00 0.01 0.01 66 1016.7
20260905032004 80 154 0.0 1.0 0.00 0.01 0.01 66 1016.6
20260905031504 80 134 0.0 1.0 0.00 0.01 0.01 66 1016.7
20260905031003 80 167 0.0 0.0 0.00 0.01 0.01 66 1016.7
20260905030504 80 168 0.0 0.0 0.00 0.01 0.01 66 1016.9
20260905030004 80 168 0.0 1.0 0.00 0.01 0.01 66 1016.9
20260905025506 80 167 0.0 1.0 0.00 0.01 0.01 66 1017.0
20260905025006 80 167 0.0 1.0 0.00 0.01 0.01 66 1017.0
20260905024504 80 173 0.0 1.0 0.00 0.01 0.01 65 1017.0
20260905024004 80 173 0.0 0.0 0.00 0.01 0.01 65 1017.2
20260905023502 80 173 0.0 0.0 0.00 0.01 0.01 65 1017.3
20260905023003 80 173 0.0 1.0 0.00 0.01 0.01 65 1017.3
20260905022502 80 173 0.0 1.0 0.00 0.01 0.01 65 1017.3
20260905022002 81 155 0.0 1.0 0.00 0.01 0.01 65 1017.3
20260905021502 81 146 0.0 1.0 0.00 0.01 0.01 65 1017.5
20260905021003 81 146 0.0 1.0 0.00 0.01 0.01 65 1017.4
20260905020503 81 146 0.0 1.0 0.00 0.01 0.01 65 1017.4
20260905020001 81 145 0.0 1.0 0.00 0.01 0.01 65 1017.4
20260905015502 81 139 0.0 1.0 0.00 0.01 0.01 65 1017.4
20260905015002 81 134 0.0 4.0 0.00 0.01 0.01 65 1017.4
20260905014503 81 113 1.0 4.0 0.00 0.01 0.01 65 1017.4
20260905014100 81 110 0.0 2.0 0.00 0.01 0.01 65 1017.3
20260905013601 81 117 0.0 3.0 0.00 0.01 0.01 65 1017.2
20260905013103 81 96 0.0 1.0 0.00 0.01 0.01 65 1017.2
20260905012604 81 130 0.0 1.0 0.00 0.01 0.01 65 1017.1
20260905012100 81 130 0.0 1.0 0.00 0.01 0.01 65 1016.9
20260905011559 81 146 0.0 1.0 0.00 0.01 0.01 65 1016.9
20260905011101 81 141 0.0 2.0 0.00 0.01 0.01 65 1016.8
20260905010559 81 129 0.0 2.0 0.00 0.01 0.01 65 1016.9
20260905010106 81 115 0.0 2.0 0.00 0.01 0.01 65 1016.8
20260905005559 81 133 0.0 2.0 0.00 0.01 0.01 65 1016.7
20260905005059 82 120 0.0 2.0 0.00 0.01 0.01 65 1016.7
20260905004612 82 171 0.0 1.0 0.00 0.01 0.01 65 1016.6
20260905004058 82 159 0.0 1.0 0.00 0.01 0.01 65 1016.6
20260905003558 82 124 0.0 4.0 0.00 0.01 0.01 64 1016.5
20260905003158 82 157 0.0 4.0 0.00 0.01 0.01 64 1016.4
20260905002557 82 157 0.0 5.0 0.00 0.01 0.01 64 1016.3
20260905002100 82 141 1.0 5.0 0.00 0.01 0.01 64 1016.3
20260905001558 82 122 1.0 4.0 0.00 0.01 0.01 64 1016.3
20260905001058 82 108 1.0 4.0 0.00 0.01 0.01 64 1016.3
20260905000557 82 120 1.0 4.0 0.00 0.01 0.01 65 1016.2
20260905000057 82 117 1.0 4.0 0.00 0.01 0.01 65 1016.1
20260904235556 82 141 0.0 2.0 0.00 0.01 0.01 65 1016.1
20260904235056 82 197 0.0 2.0 0.00 0.01 0.01 65 1016.0
20260904234558 82 143 0.0 3.0 0.00 0.01 0.01 65 1015.9
20260904234059 82 171 1.0 4.0 0.00 0.01 0.01 65 1016.0
20260904233556 82 144 0.0 4.0 0.00 0.01 0.01 65 1016.1
20260904233058 83 129 1.0 3.0 0.00 0.01 0.01 65 1016.0
20260904232556 83 121 0.0 2.0 0.00 0.01 0.01 64 1015.9
20260904232055 83 122 0.0 3.0 0.00 0.01 0.01 64 1015.9
20260904231558 83 120 0.0 3.0 0.00 0.01 0.01 64 1015.8
20260904231055 83 158 0.0 3.0 0.00 0.01 0.01 64 1015.7
20260904230556 83 167 0.0 3.0 0.00 0.01 0.01 64 1015.8
20260904225555 83 130 1.0 4.0 0.00 0.01 0.01 64 1015.8
20260904225055 83 107 1.0 4.0 0.00 0.01 0.01 64 1015.7
20260904224556 84 126 1.0 4.0 0.00 0.01 0.01 64 1015.7
20260904224057 84 157 0.0 4.0 0.00 0.01 0.01 64 1015.7
20260904223553 84 148 2.0 4.0 0.00 0.01 0.01 64 1015.7
20260904223058 84 128 1.0 4.0 0.00 0.01 0.01 64 1015.7
20260904222553 84 70 1.0 4.0 0.00 0.01 0.01 64 1015.7
20260904222058 84 108 2.0 4.0 0.00 0.01 0.01 63 1015.7
20260904221553 84 84 2.0 4.0 0.00 0.01 0.01 63 1015.6
20260904221055 84 115 0.0 3.0 0.00 0.01 0.01 63 1015.7
20260904220653 84 147 1.0 5.0 0.00 0.01 0.01 63 1015.6
20260904220110 84 103 2.0 5.0 0.00 0.01 0.01 62 1015.7
20260904215555 85 137 1.0 4.0 0.00 0.02 0.01 63 1015.6
20260904215052 85 117 1.0 4.0 0.00 0.02 0.01 63 1015.6
20260904214552 85 78 2.0 6.0 0.00 0.02 0.01 62 1015.5
20260904214054 85 115 3.0 5.0 0.00 0.02 0.01 62 1015.5
20260904213551 85 110 2.0 6.0 0.00 0.02 0.01 62 1015.4
20260904213053 85 135 3.0 6.0 0.00 0.02 0.01 62 1015.5
20260904212551 85 85 1.0 5.0 0.00 0.02 0.01 62 1015.5
20260904212051 85 162 2.0 5.0 0.00 0.02 0.01 62 1015.4
20260904211606 85 148 2.0 5.0 0.00 0.02 0.01 62 1015.3
20260904211053 85 127 1.0 7.0 0.00 0.02 0.01 62 1015.4
20260904210549 85 124 2.0 7.0 0.00 0.02 0.01 61 1015.3
20260904210050 85 110 3.0 7.0 0.00 0.02 0.01 61 1015.2
20260904205549 86 79 3.0 6.0 0.00 0.02 0.01 60 1015.3
20260904205050 86 131 1.0 9.0 0.00 0.02 0.01 60 1015.2
20260904204550 87 127 4.0 9.0 0.00 0.02 0.01 59 1015.1
20260904204049 87 112 3.0 8.0 0.00 0.02 0.01 59 1015.1
20260904203547 86 121 3.0 8.0 0.00 0.02 0.01 60 1015.0
20260904203052 86 148 3.0 10.0 0.00 0.02 0.01 60 1015.1
20260904202546 86 153 2.0 7.0 0.00 0.02 0.01 61 1015.1
20260904202045 86 89 4.0 7.0 0.00 0.02 0.01 60 1015.1
20260904201544 86 97 3.0 8.0 0.00 0.02 0.01 60 1015.0
20260904201048 86 92 4.0 10.0 0.00 0.02 0.01 59 1015.0
20260904200546 88 84 5.0 10.0 0.00 0.02 0.01 58 1015.1
20260904200045 88 115 5.0 9.0 0.00 0.02 0.01 57 1015.0
20260904195545 89 162 3.0 8.0 0.00 0.02 0.01 56 1015.1
20260904195044 89 176 3.0 8.0 0.00 0.02 0.01 55 1015.0
20260904194546 89 124 4.0 9.0 0.00 0.02 0.01 55 1015.0
20260904194041 90 131 4.0 9.0 0.00 0.02 0.01 55 1015.0
20260904193543 90 125 3.0 7.0 0.00 0.02 0.01 53 1015.1
20260904193040 91 169 1.0 7.0 0.00 0.02 0.01 53 1015.1
20260904192538 91 170 1.0 7.0 0.00 0.02 0.01 53 1015.2
20260904192038 91 124 2.0 7.0 0.00 0.02 0.01 53 1015.2
20260904191545 90 160 2.0 7.0 0.00 0.02 0.01 55 1015.3
20260904191038 89 142 4.0 7.0 0.00 0.02 0.01 54 1015.3
20260904190539 90 129 2.0 7.0 0.00 0.02 0.01 53 1015.4
20260904190045 90 148 2.0 7.0 0.00 0.02 0.01 54 1015.4
20260904185536 90 131 3.0 11.0 0.00 0.02 0.01 54 1015.4
20260904185037 90 132 4.0 11.0 0.00 0.02 0.01 54 1015.4
20260904184546 90 159 3.0 9.0 0.00 0.02 0.01 53 1015.5
20260904184034 90 188 4.0 9.0 0.00 0.02 0.01 52 1015.5
20260904183534 91 101 3.0 8.0 0.00 0.02 0.01 52 1015.5
20260904183033 91 203 3.0 7.0 0.00 0.02 0.01 50 1015.6
20260904182532 91 243 2.0 7.0 0.00 0.02 0.01 50 1015.8
20260904182032 92 163 1.0 6.0 0.00 0.02 0.01 50 1015.9
20260904181532 92 168 1.0 7.0 0.00 0.02 0.01 50 1015.9
20260904181031 91 250 3.0 11.0 0.00 0.02 0.01 49 1016.0
20260904180530 91 188 5.0 11.0 0.00 0.02 0.01 48 1016.1
20260904180029 91 193 3.0 9.0 0.00 0.02 0.01 50 1016.2
20260904175529 91 179 3.0 9.0 0.00 0.02 0.01 51 1016.3
20260904175029 91 153 4.0 10.0 0.00 0.02 0.01 50 1016.2
20260904174531 91 133 3.0 9.0 0.00 0.02 0.01 51 1016.3
20260904174027 91 217 4.0 9.0 0.00 0.02 0.01 51 1016.3
20260904173528 90 125 5.0 9.0 0.00 0.02 0.01 51 1016.4